Regional Weather Roundup
Issued by NWS Upton, NY

Current Version | Previous Version | Graphics & Text | Print | Product List | Glossary Off
Versions: 1 2 3 4 5 6 7 8 9 10 11 12 13 14 15 16 17 18 19 20 21 22 23 24 25 26 27

000
ASUS41 KOKX 191208
RWROKX

REGIONAL WEATHER ROUNDUP
NATIONAL WEATHER SERVICE NEW YORK NY
800 AM EDT SAT AUG 19 2017

NOTE: "FAIR" INDICATES FEW OR NO CLOUDS BELOW 12,000 FEET WITH NO
SIGNIFICANT WEATHER AND/OR OBSTRUCTIONS TO VISIBILITY.

NYZ071-072-176-178-NJZ106-104-191300-
NEW YORK CITY METRO AREA

CITY           SKY/WX    TMP DP  RH WIND       PRES   REMARKS
Central Park   MOSUNNY   75  71  87 VRB3      29.86R
Bronx Bot Gard   N/A     77  68  73 E1        29.85S
LaGuardia APRT PTSUNNY   77  72  84 NW6       29.82R
Kennedy INTL   CLOUDY    74  74 100 NW7       29.84R
Breezy Point     N/A     73 N/A N/A W5          N/A
Newark/Liberty PTSUNNY   77  72  84 VRB3      29.83R
Teterboro      SUNNY     77  72  84 N3        29.82R
$$

NYZ177-179-078>081-191300-
LONG ISLAND NEW YORK

CITY           SKY/WX    TMP DP  RH WIND       PRES   REMARKS
Jones Beach      N/A     75 N/A N/A NW8         N/A
Matinecock PT    N/A     75 N/A N/A W2          N/A
Farmingdale    MOSUNNY   76  72  87 N5        29.83R
MacArthur/ISP  PTSUNNY   76  73  91 NW6       29.82R
Shirley        MOSUNNY   78  75  90 NW6       29.83R
Mt Sinai Harb    N/A    N/A N/A N/A CALM        N/A
Westhampton    MOSUNNY   76  72  87 NW7       29.84R
East Hampton   FAIR      74  72  95 NW5       29.81R
Montauk          N/A     75  73  93 W6        29.83R
$$

NYZ052-065-067-191300-
HUDSON VALLEY

CITY           SKY/WX    TMP DP  RH WIND       PRES   REMARKS
White Plains   MOSUNNY   75  71  87 W7        29.84R
Larchmont Harb   N/A     73 N/A N/A W5          N/A
Croton On Huds   N/A     77 N/A N/A MISG        N/A
Newburgh       MOSUNNY   72  72 100 W5        29.86R
Montgomery     SUNNY     72  69  90 SW6       29.84R
Poughkeepsie   CLOUDY    72  70  93 CALM      29.83R FOG
Albany         MOSUNNY   70  65  84 CALM      29.83R
$$

NJZ001-105-106-008-010-013-015-019>022-104-191300-
NEW JERSEY

CITY           SKY/WX    TMP DP  RH WIND       PRES   REMARKS
Newark/Liberty PTSUNNY   77  72  84 VRB3      29.83R
Teterboro      SUNNY     77  72  84 N3        29.82R
Caldwell       SUNNY     74  73  97 CALM      29.84S
Somerville     SUNNY     75  74  96 CALM      29.83R FOG
Linden         FAIR      74  71  92 CALM      29.83S
Perth Amboy      N/A     73 N/A N/A W7          N/A
Sussex         FOG       70  70 100 CALM      29.86R VSB<1/4
Andover          N/A     71  70  96 CALM      29.86S
Trenton        PTSUNNY   76  73  91 N7        29.84R
Millville      SUNNY     79  77  94 NW5       29.85R
Atlantic City  CLOUDY    77  75  93 W6        29.85R
Wrightstown    SUNNY     76  74  93 NW6       29.82R
Toms River     CLOUDY    75  73  93 NW6       29.85R
Belmar         PTSUNNY   74  72  93 W5        29.86R
$$

PAZ047>061-062-071-191300-
EASTERN PENNSYLVANIA

CITY           SKY/WX    TMP DP  RH WIND       PRES   REMARKS
Philadelphia   PTSUNNY   77  70  79 NW8       29.86R
Allentown      SUNNY     74  69  85 MISG      29.86S
Scranton       MOSUNNY   71  68  90 SW6       29.89S
$$

CTZ002-004>006-009-010-012-RIZ004-006-007-MAZ004-011-015-191300-
SOUTHERN NEW ENGLAND
 IN CT

CITY           SKY/WX    TMP DP  RH WIND       PRES   REMARKS
Bradley INTL   MOSUNNY   73  67  81 NW3       29.81S
Hartford       CLOUDY    75  67  76 N5        29.81S
Danbury        PTSUNNY   74  71  91 VRB3      29.85R
Wtrbury/Oxford MOSUNNY   72  69  90 NW5       29.85S
Norwalk Harbor   N/A     72 N/A N/A W5          N/A
Bridgeport     SUNNY     76  72  87 W5        29.82R
Meriden        PTSUNNY   71  71 100 CALM      29.82R FOG
New Haven      MOSUNNY   74  71  91 N6        29.82R
Chester        FAIR      73  73 100 W3        29.83R
Groton         PTSUNNY   75  72  90 NW7       29.80R
Wilimantic     MOSUNNY   75  73  93 VRB3      29.81R

 IN RI

CITY           SKY/WX    TMP DP  RH WIND       PRES   REMARKS
Providence     CLOUDY    77  75  93 W6        29.80R
Block Island   MOSUNNY   73  71  93 W13       29.81R
Westerly       NOT AVBL
 IN MA

CITY           SKY/WX    TMP DP  RH WIND       PRES   REMARKS
Boston         CLOUDY    65  64  97 N6        29.81R FOG
Worcester      FOG       68  66  93 E3        29.84R VSB<1/4
Westfield      SUNNY     73  69  87 CALM      29.82R
Provincetown   FOG       72  72 100 SW8       29.79R VSB 1/4
Nantucket      CLOUDY    70  70 100 S13       29.81S FOG
$$

ANZ330-335-338-340-345-350-353-355-191300-
COASTAL MARINE OBSERVATIONS


STATION/POSITION TIME  SKY/WX   TEMP    WIND        PRES    VSBY  WAVE
                                AIR SEA DIR/SP/G                  HT/PER
                 (UTC)          (F)     (DEG/KT/KT) (MB)    (MI)  (FT/S)
NY HARB ENTRANCE 1050            75 76  290/ 12/ 14 1008.9          4/ 6
GREAT SOUTH BAY  1130            74 78  310/  4/  8   N/A
23 SSW MONTAUK P 1050            72 71              1008.9          5/ 7
15 E BARNEGAT LI 1130               76                N/A           4/ 6
HUDSON CANYON    1050            75 74  250/ 10/ 10 1009.3          4/ 6
KINGS POINT      1136            76 74  330/  2/  3 1009.9
EXECUTION ROCKS  NOT AVBL
WESTERN LI SOUND NOT AVBL
CENTRAL LI SOUND NOT AVBL
EASTERN LI SOUND NOT AVBL
ROBBINS REEF     1130                   280/  3/  4 1010.5
$$


>>>>>>>>>>>>>>>>>>>>>>>>>>>> KEY <<<<<<<<<<<<<<<<<<<<<<<<<<<
>                                                          <
>     SKY/WX - Sky Condition/Present Weather               <
>     TMP    - Temperature in Fahrenheit                   <
>     DP     - Dew Point in Fahrenheit                     <
>     RH     - Relative Humidity in Percent                <
>     WIND   - Direction (from) and Speed in MPH           <
>     PRES   - Mean Sea Level Pressure (inches of Hg)      <
>     WCI    - Wind Chill Index                            <
>     VSB    - VISIBILITY IN MILES                         <
>     HX     - HEAT INDEX                                  <
>     TC     - TEMPERATURE IN CELSIUS                      <
>     VRB    - VARIABLE WIND DIRECTION                     <
>                                                          <
>>>>>>>>>>>>>>>>>>>>>>>>>>>> KEY <<<<<<<<<<<<<<<<<<<<<<<<<<<




USA.gov is the U.S. government's official web portal to all federal, state and local government web resources and services.